Location: Riverside
(39.1734°N, 77.8561°W)
Time: 07:55:23
(UTC+00:00)

N. Korean satellite - Visible Passes

Search period start: 19 November 2019 00:00
Search period end: 29 November 2019 00:00
Orbit: 456 x 506 km, 97.2° (Epoch: 18 November)

Date Brightness Start Highest point End Pass type
(mag) Time Alt. Az. Time Alt. Az. Time Alt. Az.
19 Nov 7.2 10:53:58 10° NNE 10:57:39 62° E 11:01:15 10° S visible
19 Nov 9.3 23:01:56 10° SSW 23:04:54 23° W 23:07:54 10° NW visible
20 Nov 8.9 10:28:58 10° NE 10:32:12 28° E 10:35:21 10° SSE visible
20 Nov 7.7 22:35:53 10° S 22:39:25 50° W 22:43:02 10° NNW visible
21 Nov 10.0 10:04:42 10° ENE 10:06:38 14° E 10:08:34 10° SE visible
22 Nov 6.5 11:11:09 10° N 11:14:50 74° WNW 11:18:27 10° SSW visible
22 Nov 10.0 23:20:08 10° SW 23:22:13 14° W 23:24:18 10° WNW visible
23 Nov 7.7 10:45:52 10° NNE 10:49:27 47° E 10:52:56 10° S visible
23 Nov 8.8 22:53:26 10° SSW 22:56:40 29° W 22:59:57 10° NW visible
24 Nov 9.3 10:21:02 10° NE 10:23:56 22° E 10:26:48 10° SSE visible
24 Nov 7.1 22:27:34 10° S 22:31:12 66° W 22:34:54 10° NNW visible
25 Nov 10.2 09:57:29 10° ENE 09:58:21 11° E 09:59:12 10° ESE visible
25 Nov 7.0 11:28:29 10° N 11:31:58 42° WNW 11:35:22 10° SW visible
26 Nov 6.6 11:02:57 10° NNE 11:06:37 85° E 11:10:12 10° S visible
26 Nov 9.7 23:11:19 10° SW 23:13:55 18° W 23:16:34 10° NW visible
27 Nov 8.2 10:37:46 10° NNE 10:41:11 36° E 10:44:30 10° SSE visible
27 Nov 8.3 22:44:58 10° SSW 22:48:24 37° W 22:51:53 10° NNW visible
28 Nov 9.6 10:13:09 10° NE 10:15:38 17° E 10:18:06 10° SE visible
28 Nov 6.7 22:19:17 10° S 22:22:58 86° W 22:26:42 10° NNW visible
